Regional Weather Roundup
Issued by NWS

Home | Current Version | Previous Version | Text Only | Print | Product List | Glossary On
Versions: 1 2 3 4 5 6 7 8 9 10 11 12 13 14 15 16 17 18 19 20 21 22 23 24 25 26 27 28 29 30 31 32 33 34 35 36 37 38 39 40 41 42 43 44 45 46 47 48 49 50
000
ASUS44 KLIX 222010
RWRLA
LOUISIANA WEATHER ROUNDUP
NATIONAL WEATHER SERVICE NEW ORLEANS LA
300 PM CDT MON SEP 22 2014

NOTE: "FAIR" INDICATES FEW OR NO CLOUDS BELOW 12,000 FEET WITH NO
      SIGNIFICANT WEATHER AND/OR OBSTRUCTIONS TO VISIBILITY.
      SKY/WX - SKY CONDITION AND SIGNIFICANT WEATHER.
      TMP - AIR TEMPERATURE.    DP   - DEWPOINT TEMPERATURE.
      RH  - RELATIVE HUMIDITY.  PRES - PRESSURE.
      HX  - HEAT INDEX.         WCI  - WIND CHILL INDEX.

*  THESE STATIONS ARE NOT NWS OR FAA STATIONS AND ARE NOT UNDER
   NWS QUALITY CONTROL.

LAZ040-048-061>063-065-066-069-222100-
SOUTHEAST LOUISIANA

CITY           SKY/WX    TMP DP  RH WIND       PRES   REMARKS
N.O. AUDUBON     N/A     93  73  52 MISG        N/A  HX 101
N.O. INTL ARPT MOSUNNY   90  71  53 N12       29.97F HX  96
N.O. LAKEFRONT MOSUNNY   86  73  65 NW14G20   29.98F
N.O. DOWNTOWN* FAIR      88  70  55 NW7       29.97F
SLIDELL        PTSUNNY   85  72  65 E9        29.97F
BATON ROUGE    SUNNY     88  68  51 N9        30.00F
BOOTHVILLE     SUNNY     85  71  63 N8        29.97F
BELLE CHASSE   MOSUNNY   91  67  44 NE12G17   29.95F
BOGALUSA*        N/A     88  66  48 NE10G17   30.01F
GALLIANO*      NOT AVBL
NEW ROADS*     FAIR      86  66  50 N12G18    30.01F
GONZALES*      FAIR      87  74  64 N8        29.98F HX  95
HAMMOND*       SUNNY     88  66  48 N15       30.00F
HOUMA*         MOSUNNY   91  37  15 N9        29.97F
PORT FOURCHON* CLEAR     88  68  51 NE15G21   30.00F

$$

LAZ041-044-053-054-222100-
SOUTHWEST LOUISIANA

CITY           SKY/WX    TMP DP  RH WIND       PRES   REMARKS
LAKE CHARLES   MOSUNNY   88  72  58 NE12      30.02F
LAFAYETTE      MOSUNNY   89  72  56 N13       30.00F HX  96
PATTERSON      SUNNY     91  73  55 N6          N/A  HX 100
SALT POINT       N/A     90  72  55 VRB5      29.98F HX  97
NEW IBERIA     MOSUNNY   90  73  57 N14       30.00F HX  98
CHENAULT AIRPK NOT AVBL

$$

LAZ027-028-222100-
CENTRAL LOUISIANA

CITY           SKY/WX    TMP DP  RH WIND       PRES   REMARKS
FORT POLK      SUNNY     84  61  45 NE12      30.06F
ALEXANDRIA INT SUNNY     85  60  42 N9        30.05F
ALEXANDRIA     SUNNY     85  59  41 N9G17     30.07F

$$

LAZ001-002-222100-
NORTHWEST LOUISIANA

CITY           SKY/WX    TMP DP  RH WIND       PRES   REMARKS
SHREVEPORT     MOSUNNY   86  50  28 N12       30.10F
BARKSDALE AFB  SUNNY     86  49  27 N8        30.11F
DTN SHREVEPORT SUNNY     85  51  31 VRB7      30.11F

$$

LAZ014-016-222100-
NORTHEAST LOUISIANA

CITY           SKY/WX    TMP DP  RH WIND       PRES   REMARKS
MONROE         SUNNY     83  53  35 N12       30.11F
TALLULAH       SUNNY     85  51  31 NE9       30.09F

$$



USA.gov is the U.S. government's official web portal to all federal, state and local government web resources and services.